[[{"header":{"parameterUnit":"m.s-1","parameterCategory":1,"la1":30.2991,"la2":30.254,"lo1":-89.0895,"lo2":-89.0444,"dy":0.0017,"dx":0.0017,"nx":28,"ny":28,"refTime":"2023-09-06T21:00:00:Z","depth":0,"parameterNumber":2,"parameterNumberName":"U-component_of_WINDS"},"data":[0,0,0,0,0,0,0,0,0,0,0,0,0,0,0,0,0,0,0,0,0,0,0,0,0,0,0,0,0,0,0,0,0,0,0,0,0,0,0,0,0,0,0,0,0,0,0,0,0,0,0,0,0,0,0,0,0,0,2.0698,2.0699,0,2.0798,2.0799,2.0801,2.0805,2.0804,2.0803,2.0802,2.0904,2.0907,2.0911,0,0,0,0,0,0,0,0,0,0,0,0,0,2.0507,2.0511,2.0698,2.0699,2.07,2.0798,2.0799,2.0801,2.0805,2.0804,2.0803,2.0801,2.0902,2.0907,2.0911,0,0,0,0,0,0,0,0,0,0,0,0,0,2.0597,2.0512,2.0697,2.0714,2.0717,2.0798,2.0799,2.0801,2.0806,2.0804,2.0802,2.0801,2.0901,2.0906,2.0912,2.0983,0,0,2.0929,2.0932,0,0,0,0,0,0,0,0,2.0592,2.0604,2.0711,2.0713,2.0716,2.0787,2.077,2.0862,2.0806,2.0772,2.0802,2.08,2.0866,2.0875,2.0897,2.0987,2.0992,2.093,2.0933,2.0936,2.0937,0,0,0,0,0,0,0,2.0586,2.06,2.0737,2.0712,2.0716,2.0716,2.0727,2.0787,2.0828,2.0775,2.0775,2.0787,2.0867,2.0892,2.09,2.0993,2.093,2.0935,2.0938,2.0941,2.1144,2.1145,0,0,0,0,0,0,2.0577,2.0595,2.0734,2.074,2.0649,2.0721,2.0733,2.0766,2.0827,2.0835,2.0789,2.0787,2.0883,2.0893,2.0903,2.0988,2.0936,2.0941,2.0944,2.1142,2.1144,2.1146,0,0,0,0,0,0,2.0572,2.0589,2.073,2.0668,2.0686,2.0726,2.0763,2.0769,2.0794,2.0838,2.0845,2.0806,2.0882,2.0895,2.0962,2.0992,2.0944,2.0949,2.1139,2.1142,2.1145,2.1159,0,0,0,0,0,0,2.0567,2.0588,2.0615,2.0668,2.0689,2.0788,2.0765,2.0772,2.0804,2.0803,2.0856,2.0863,2.0882,2.0954,2.0968,2.0999,2.0953,2.1137,2.1141,2.1144,2.1156,2.1162,2.1167,0,0,0,0,0,2.056,2.0616,2.0617,2.0634,2.0725,2.079,2.0802,2.0822,2.0806,2.0834,2.0862,2.0861,2.0987,2.0961,2.0977,2.101,2.1135,2.114,2.1144,2.1154,2.1161,2.1167,0,0,0,0,0,0,2.0565,2.0623,2.0625,2.0699,2.0739,2.079,2.0826,2.083,2.0875,2.0872,2.0895,2.0907,2.0973,2.0999,2.0968,2.108,2.1059,2.1067,2.1061,2.1068,2.1074,2.1065,2.0958,0,0,0,0,0,2.0575,2.0623,2.0671,2.0732,2.0752,2.0786,2.0815,2.0827,2.087,2.0887,2.092,2.0961,2.1009,2.104,2.1087,2.116,2.1171,2.1191,2.1196,2.1201,2.1207,2.1245,2.1254,2.1161,2.1161,2.1161,0,0,2.0595,2.0633,2.0662,2.0734,2.0766,2.0815,2.08,2.0853,2.0889,2.0895,2.0959,2.0985,2.1032,2.1102,2.1134,2.1125,2.1235,2.1206,2.121,2.1213,2.1251,2.1259,2.1267,2.1164,2.1163,2.1163,0,0,2.0657,2.0691,2.0744,2.0777,2.0827,2.0849,2.0861,2.0912,2.0929,2.0995,2.1,2.1043,2.1126,2.1159,2.1186,2.1259,2.126,2.1274,2.1302,2.134,2.1347,2.1353,2.1377,2.1386,2.128,2.128,2.128,0,2.0675,2.075,2.0771,2.0823,2.0854,2.0862,2.0915,2.0946,2.1009,2.1029,2.1018,2.1121,2.1154,2.123,2.1248,2.1271,2.1285,2.1267,2.1344,2.1351,2.1357,2.1381,2.139,2.1281,2.1281,2.1281,2.1281,0,2.0769,2.0821,2.0858,2.0917,2.0952,2.1005,2.1033,2.1066,2.1075,2.1098,2.1163,2.1203,2.1257,2.1276,2.1286,2.1354,2.1346,2.134,2.1318,2.1367,2.1389,2.1398,2.1283,2.1283,2.1282,2.1282,0,0,2.0836,2.0907,2.092,2.0946,2.1001,2.1041,2.1093,2.1146,2.1173,2.1216,2.1259,2.1329,2.1322,2.1354,2.1367,2.14,2.1452,2.1389,2.139,2.1398,2.1527,2.153,2.154,2.1454,2.1456,2.1457,2.1523,0,2.0902,2.0996,2.1016,2.1096,2.1143,2.115,2.1196,2.1234,2.1256,2.1298,2.1323,2.1371,2.1361,2.1379,2.1412,2.1439,2.1478,2.1435,2.1493,2.1495,2.1479,2.1552,2.1556,2.1616,2.1532,2.1533,2.1534,0,2.0992,2.1036,2.1121,2.1168,2.1188,2.1229,2.1278,2.1319,2.1361,2.1375,2.141,2.1419,2.1473,2.145,2.1523,2.1493,2.1518,2.1535,2.1538,2.1542,2.1516,2.1557,2.1636,2.1644,2.1548,2.1547,2.1546,0,2.103,2.1111,2.1171,2.1194,2.1251,2.1279,2.1304,2.1345,2.1375,2.1418,2.1437,2.1486,2.1513,2.155,2.1572,2.1554,2.1643,2.1622,2.1654,2.1654,2.1671,2.1669,2.1753,2.1691,2.169,2.169,2.169,0,2.11,2.1151,2.1188,2.1225,2.1282,2.1305,2.136,2.1385,2.1422,2.1463,2.1473,2.1511,2.1539,2.1581,2.1599,2.1655,2.1668,2.1679,2.1683,2.1677,2.1675,2.1693,2.1688,2.1693,2.1692,2.1692,2.1691,0,2.1151,2.1179,2.1245,2.1293,2.1307,2.1346,2.1387,2.1423,2.1445,2.1497,2.1511,2.1546,2.1595,2.1621,2.1684,2.1695,2.1758,2.1761,2.1744,2.1745,2.1774,2.177,2.1871,2.1884,2.1814,2.1815,2.1815,0,2.1194,2.1233,2.1285,2.1314,2.1339,2.1385,2.1415,2.1439,2.147,2.1521,2.155,2.16,2.1642,2.1721,2.1751,2.1798,2.1801,2.1832,2.1808,2.18,2.1799,2.1795,2.1798,2.1836,2.1837,2.1837,2.1838,0,2.1265,2.1276,2.132,2.1368,2.1404,2.1443,2.1482,2.1504,2.1534,2.1568,2.1619,2.1651,2.1714,2.1763,2.1813,2.1838,2.1842,2.1846,2.1855,2.1849,2.1836,2.1841,2.1753,2.1843,2.1842,2.1842,2.1842,2.1841,2.1312,2.1346,2.1388,2.1436,2.1467,2.1503,2.1538,2.1565,2.1607,2.166,2.1672,2.1725,2.1766,2.1832,2.1859,2.19,2.1893,2.1908,2.1911,2.1914,2.1914,2.1831,2.1909,2.1909,2.1909,2.1909,2.1909,0,2.1382,2.1409,2.1453,2.1506,2.1543,2.1545,2.1587,2.1618,2.1665,2.1702,2.1743,2.18,2.1847,2.1882,2.193,2.1956,2.1959,2.1968,2.1965,2.197,2.1918,2.1904,2.1964,2.1964,2.1964,2.1964,2.1964,2.1964,2.1423,2.148,2.1496,2.1569,2.1596,2.1648,2.1672,2.1704,2.1734,2.1797,2.1837,2.1859,2.1894,2.1945,2.1988,2.1997,2.2013,2.2021,2.203,2.198,2.1974,2.1968,2.1955,2.2025,2.2025,2.2078,2.2079,2.2079]},{"header":{"parameterUnit":"m.s-1","parameterCategory":1,"la1":30.2991,"la2":30.254,"lo1":-89.0895,"lo2":-89.0444,"dy":0.0017,"dx":0.0017,"nx":28,"ny":28,"refTime":"2023-09-06T21:00:00:Z","depth":0,"parameterNumber":3,"parameterNumberName":"V-component_of_WINDS"},"data":[0,0,0,0,0,0,0,0,0,0,0,0,0,0,0,0,0,0,0,0,0,0,0,0,0,0,0,0,0,0,0,0,0,0,0,0,0,0,0,0,0,0,0,0,0,0,0,0,0,0,0,0,0,0,0,0,0,0,-0.1139,-0.1139,0,-0.1084,-0.1084,-0.1083,-0.1064,-0.1064,-0.1065,-0.1065,-0.1009,-0.1007,-0.1006,0,0,0,0,0,0,0,0,0,0,0,0,0,-0.1229,-0.1227,-0.1139,-0.1139,-0.1138,-0.1085,-0.1084,-0.1083,-0.1064,-0.1064,-0.1065,-0.1065,-0.101,-0.1008,-0.1005,0,0,0,0,0,0,0,0,0,0,0,0,0,-0.1183,-0.1227,-0.1139,-0.1122,-0.112,-0.1085,-0.1084,-0.1083,-0.1064,-0.1064,-0.1065,-0.1065,-0.101,-0.1008,-0.1005,-0.0983,0,0,-0.0998,-0.0996,0,0,0,0,0,0,0,0,-0.1186,-0.118,-0.1125,-0.1123,-0.1121,-0.1081,-0.1095,-0.1049,-0.1064,-0.1085,-0.1065,-0.1065,-0.1033,-0.1028,-0.1017,-0.0981,-0.0978,-0.0997,-0.0996,-0.0995,-0.0994,0,0,0,0,0,0,0,-0.1189,-0.1182,-0.1118,-0.1125,-0.1122,-0.1117,-0.1111,-0.1086,-0.1058,-0.1083,-0.1082,-0.1076,-0.1032,-0.102,-0.1016,-0.0977,-0.0997,-0.0995,-0.0994,-0.0993,-0.0921,-0.0921,0,0,0,0,0,0,-0.1195,-0.1185,-0.1119,-0.1116,-0.1155,-0.1116,-0.1109,-0.1094,-0.1058,-0.1053,-0.1076,-0.1075,-0.1024,-0.1019,-0.1014,-0.0986,-0.0995,-0.0992,-0.0991,-0.0922,-0.0921,-0.0921,0,0,0,0,0,0,-0.1197,-0.1189,-0.1122,-0.115,-0.1141,-0.1114,-0.1097,-0.1093,-0.1081,-0.1052,-0.1047,-0.1069,-0.1024,-0.1018,-0.0991,-0.0984,-0.0991,-0.0989,-0.0922,-0.0922,-0.0921,-0.0931,0,0,0,0,0,0,-0.12,-0.119,-0.1181,-0.115,-0.114,-0.1099,-0.1097,-0.1091,-0.1076,-0.1075,-0.1044,-0.104,-0.1024,-0.0995,-0.0989,-0.0981,-0.0987,-0.0923,-0.0922,-0.0921,-0.0931,-0.0931,-0.0931,0,0,0,0,0,-0.1203,-0.1186,-0.1181,-0.1173,-0.1128,-0.1099,-0.1093,-0.1075,-0.1076,-0.1067,-0.1049,-0.1041,-0.0986,-0.0993,-0.0985,-0.0977,-0.0923,-0.0922,-0.0921,-0.0931,-0.0931,-0.0931,0,0,0,0,0,0,-0.1217,-0.1182,-0.1175,-0.1148,-0.1127,-0.1096,-0.1084,-0.1075,-0.1053,-0.1053,-0.1032,-0.1026,-0.1001,-0.0986,-0.0994,-0.0954,-0.0954,-0.0952,-0.0964,-0.0964,-0.0964,-0.0967,-0.0985,0,0,0,0,0,-0.1217,-0.1196,-0.1166,-0.1145,-0.1135,-0.1111,-0.1098,-0.1086,-0.1063,-0.1054,-0.1034,-0.1012,-0.0991,-0.0977,-0.0955,-0.0929,-0.0923,-0.092,-0.092,-0.092,-0.0918,-0.0904,-0.0903,-0.0918,-0.0918,-0.0918,0,0,-0.1216,-0.1194,-0.1182,-0.1147,-0.1129,-0.1109,-0.1104,-0.1082,-0.1066,-0.1051,-0.1025,-0.101,-0.0984,-0.0959,-0.0946,-0.0945,-0.0912,-0.0919,-0.0919,-0.0917,-0.0903,-0.0902,-0.09,-0.0917,-0.0918,-0.0918,0,0,-0.1204,-0.1185,-0.1166,-0.1148,-0.1122,-0.1106,-0.1102,-0.1073,-0.1062,-0.1036,-0.1024,-0.1006,-0.0968,-0.0951,-0.0937,-0.0921,-0.0913,-0.0915,-0.0913,-0.09,-0.0898,-0.0897,-0.0892,-0.089,-0.0913,-0.0913,-0.0913,0,-0.1206,-0.1174,-0.1157,-0.1136,-0.1121,-0.1107,-0.1087,-0.1071,-0.1039,-0.1029,-0.1029,-0.0982,-0.0964,-0.0935,-0.0931,-0.092,-0.0915,-0.0917,-0.09,-0.0899,-0.0897,-0.0892,-0.089,-0.0913,-0.0913,-0.0913,-0.0913,0,-0.1179,-0.1157,-0.1145,-0.1114,-0.1098,-0.1078,-0.1058,-0.1044,-0.1034,-0.1019,-0.0993,-0.0971,-0.0945,-0.0938,-0.0928,-0.0907,-0.0908,-0.0904,-0.0904,-0.0897,-0.0891,-0.0889,-0.0914,-0.0914,-0.0913,-0.0913,0,0,-0.1172,-0.1134,-0.1129,-0.1116,-0.1086,-0.1069,-0.1049,-0.1024,-0.1012,-0.0991,-0.0974,-0.0944,-0.094,-0.0925,-0.0913,-0.0902,-0.0891,-0.09,-0.0899,-0.0899,-0.0868,-0.087,-0.0868,-0.0886,-0.0886,-0.0885,-0.087,0,-0.1157,-0.1119,-0.1104,-0.1074,-0.1054,-0.1041,-0.1024,-0.1004,-0.099,-0.0972,-0.0957,-0.0935,-0.0933,-0.0923,-0.0912,-0.0895,-0.0885,-0.0896,-0.087,-0.0869,-0.0876,-0.0865,-0.0867,-0.0854,-0.0868,-0.0867,-0.0867,0,-0.1133,-0.1112,-0.108,-0.1054,-0.1045,-0.103,-0.1006,-0.0988,-0.0966,-0.0957,-0.0941,-0.093,-0.0909,-0.0911,-0.0882,-0.089,-0.0879,-0.087,-0.0869,-0.0865,-0.0867,-0.0861,-0.0849,-0.0847,-0.0863,-0.0864,-0.0864,0,-0.1131,-0.1095,-0.1072,-0.1061,-0.103,-0.1019,-0.1006,-0.0984,-0.097,-0.095,-0.0941,-0.0919,-0.0906,-0.0889,-0.0873,-0.0876,-0.0846,-0.0847,-0.0838,-0.0839,-0.0832,-0.0832,-0.0818,-0.0826,-0.0826,-0.0826,-0.0826,0,-0.1115,-0.1096,-0.1071,-0.1057,-0.1036,-0.1018,-0.0998,-0.0984,-0.0965,-0.0948,-0.0936,-0.092,-0.09,-0.0882,-0.087,-0.0848,-0.0843,-0.0835,-0.0832,-0.0836,-0.0837,-0.0828,-0.0828,-0.0825,-0.0825,-0.0825,-0.0825,0,-0.1109,-0.1092,-0.1065,-0.1039,-0.1032,-0.1017,-0.0995,-0.0981,-0.0967,-0.0946,-0.094,-0.0918,-0.0897,-0.0879,-0.0851,-0.0843,-0.082,-0.0817,-0.0828,-0.0826,-0.0819,-0.082,-0.0797,-0.0794,-0.0804,-0.0804,-0.0804,0,-0.11,-0.1085,-0.1057,-0.1045,-0.1032,-0.1012,-0.0999,-0.0982,-0.0968,-0.0943,-0.0932,-0.091,-0.0891,-0.0857,-0.0839,-0.0818,-0.0814,-0.0808,-0.081,-0.0815,-0.0814,-0.0815,-0.0813,-0.0807,-0.0807,-0.0807,-0.0807,0,-0.1085,-0.1077,-0.1057,-0.1035,-0.1019,-0.1001,-0.0983,-0.0974,-0.0953,-0.0939,-0.0917,-0.0902,-0.0874,-0.0853,-0.083,-0.0817,-0.0809,-0.0807,-0.0803,-0.0807,-0.0814,-0.081,-0.0827,-0.0807,-0.0807,-0.0807,-0.0807,-0.0807,-0.1076,-0.1063,-0.1042,-0.1021,-0.1006,-0.0989,-0.0975,-0.0959,-0.0941,-0.0916,-0.0908,-0.0886,-0.0865,-0.0834,-0.0821,-0.0804,-0.0803,-0.0798,-0.0797,-0.0796,-0.0797,-0.0817,-0.0799,-0.0799,-0.0799,-0.0799,-0.0799,0,-0.1061,-0.1047,-0.1028,-0.1003,-0.0987,-0.0981,-0.0961,-0.0948,-0.0928,-0.091,-0.0892,-0.0868,-0.0847,-0.0828,-0.0807,-0.0797,-0.0793,-0.0792,-0.0792,-0.0789,-0.0799,-0.0803,-0.0795,-0.0795,-0.0795,-0.0795,-0.0795,-0.0795,-0.1051,-0.1028,-0.1019,-0.0989,-0.0975,-0.0953,-0.0942,-0.0927,-0.0912,-0.0886,-0.0868,-0.0856,-0.0838,-0.0816,-0.0797,-0.0792,-0.0785,-0.0785,-0.0779,-0.0788,-0.0788,-0.0789,-0.0793,-0.0783,-0.0783,-0.077,-0.077,-0.077]}]]